Regional Weather Roundup
Issued by NWS

Home | Current Version | Previous Version | Graphics & Text | Print | Product List | Glossary On
Versions: 1 2 3 4 5 6 7 8 9 10 11 12 13 14 15 16 17 18 19 20 21 22 23 24 25 26 27 28 29 30 31 32 33 34 35 36 37 38 39 40 41 42 43 44 45 46 47 48 49 50
000
ASUS43 KLOT 272006
RWRIL

ILLINOIS REGIONAL WEATHER ROUNDUP
NATIONAL WEATHER SERVICE CHICAGO/ROMEOVILLE IL
200 PM CST FRI FEB 27 2015

NOTE: "FAIR" INDICATES FEW OR NO CLOUDS BELOW 12,000 FEET WITH NO
SIGNIFICANT WEATHER AND/OR OBSTRUCTIONS TO VISIBILITY.

* THESE STATIONS ARE NOT UNDER NWS QUALITY CONTROL. THEY ALSO MAY NOT
  REPORT WEATHER SUCH AS PRECIPITATION OR FOG.

ILZ001-002-007-009-015-016-024-272100-
NORTHWEST ILLINOIS

CITY           SKY/WX    TMP DP  RH WIND       PRES   REMARKS
MOLINE         SUNNY     13  -5  44 W3        30.62F
STERLING*      SUNNY     12   0  57 SW6       30.63F WCI   3
SAVANNA*       SUNNY     13  -6  43 W7        30.62S WCI   2
$$

ILZ003-004-008-010-011-017-018-272100-
NORTH CENTRAL ILLINOIS

CITY           SKY/WX    TMP DP  RH WIND       PRES   REMARKS
ROCKFORD       SUNNY     12  -5  46 W6        30.61S WCI   3
FREEPORT*      SUNNY      9  -3  57 SW7       30.61S WCI  -2
ROCHELLE*      SUNNY      9  -1  64 SW9       30.61S WCI  -4
DE KALB*       SUNNY      9  -5  54 W8        30.59S WCI  -4
PERU*          SUNNY     14  -1  52 NW9       30.63S WCI   2
$$

ILZ005-006-012>014-019>023-272100-
NORTHEAST ILLINOIS

CITY           SKY/WX    TMP DP  RH WIND       PRES   REMARKS
CHICAGO-OHARE  SUNNY     13  -4  46 W10       30.58F WCI   0
CHICAGO-MIDWAY SUNNY     16  -3  43 W8        30.60F WCI   5
AURORA         SUNNY     11  -2  56 W10       30.61F WCI  -3
LANSING*       SUNNY     15  -2  46 W12       30.60F WCI   2
JOLIET*        SUNNY     11  -3  52 W8        30.63F WCI   0
WAUKEGAN       SUNNY     14  -5  42 W8        30.56F WCI   3
DUPAGE AIRPORT SUNNY     12  -4  48 W10       30.59F WCI  -1
KANKAKEE*      SUNNY     10   2  70 W8        30.63F WCI  -1
WHEELING       SUNNY     15  -5  40 W10       30.60S WCI   2
MORRIS*        SUNNY     11   1  65 NW6       30.62F WCI   1
ROMEOVILLE*    SUNNY     12  -2  53 W12       30.61S WCI  -2
NORTHERLY ISL    N/A     19  -4  36 NW7         N/A  WCI  10
$$

LMZ740>746-272100-
SOUTHERN LAKE MICHIGAN

STATION/POSITION SKY/WX   TEMP    WIND        PRES    VSBY  WAVE
                          AIR SEA DIR/SP/G                  HT/PER
                          (F)     (DEG/KT/KT) (MB)    (MI)  (FT/S)
WAUKEGAN HARBOR            15     260/  7/  9   N/A
HARRISON CRIB              15     270/  9/ 14   N/A
BURNHAM HARBOR             18     260/ 10/ 11   N/A
CALUMET HARBOR             18     240/  5/ 10 1034.5S
MICHIGAN CITY              16     250/  7/  9   N/A
$$

ILZ025>027-034>036-040-047-049-050-058-095>099-272100-
WEST-CENTRAL ILLINOIS

CITY           SKY/WX    TMP DP  RH WIND       PRES   REMARKS
QUINCY         SUNNY     12  -4  48 N3        30.63F
GALESBURG*     SUNNY      9  -1  61 W5        30.62F WCI   1
MACOMB*        SUNNY      9   0  69 NW6       30.67S WCI  -1
JACKSONVILLE*  SUNNY     13  -1  53 W5        30.65S WCI   6
PITTSFIELD*    SUNNY     14  -1  50 NW6       30.63F WCI   5
$$

ILZ028>032-037-038-041>044-048-051>054-059>061-272100-
CENTRAL ILLINOIS

CITY           SKY/WX    TMP DP  RH WIND       PRES   REMARKS
PONTIAC        SUNNY     11   0  61 W3        30.63F
BLOOMINGTON    SUNNY     17   2  52 E6        30.61S WCI   9
DECATUR        SUNNY     14   1  56 NE7       30.63S WCI   4
PEORIA         SUNNY     16  -2  45 W6        30.63F WCI   7
LACON*         SUNNY     12  -4  50 NW7       30.63F WCI   1
LINCOLN*       SUNNY     15   2  56 CALM      30.66S
SPRINGFIELD    SUNNY     10   1  67 SW7       30.64F WCI  -1
TAYLORVILLE    SUNNY     12   1  62 CALM      30.63F
$$

ILZ033-039-045-046-055>057-062-063-272100-
EAST-CENTRAL ILLINOIS

CITY           SKY/WX    TMP DP  RH WIND       PRES   REMARKS
CHAMPAIGN      SUNNY     12   1  61 W6        30.62F WCI   3
DANVILLE*      SUNNY     15   0  50 N3        30.58F
RANTOUL*       SUNNY     16   1  51 W3        30.61S
MATTOON        SUNNY     13  -1  54 N5        30.62F WCI   5
PARIS*         SUNNY     14   4  64 CALM      30.63F
$$

ILZ079-100>102-272100-
SOUTHWEST ILLINOIS

CITY           SKY/WX    TMP DP  RH WIND       PRES   REMARKS
ALTON          MOSUNNY   14  -8  37 N8        30.65F WCI   3
BELLEVILLE     SUNNY     21   2  44 NE12      30.62F WCI   9
CAHOKIA*       FAIR      20   2  45 N9        30.64F WCI   9
SPARTA*        SUNNY     20   9  63 N6        30.63S WCI  12
$$

ILZ064>066-069>071-074>076-080>082-084>086-088>090-092>094-272100-
SOUTH-CENTRAL ILLINOIS

CITY           SKY/WX    TMP DP  RH WIND       PRES   REMARKS
CARBONDALE     PTSUNNY   21   8  57 VRB3      30.63R
CAIRO*         SUNNY     26  11  53 NE7       30.61F WCI  18
EFFINGHAM*     SUNNY     16  -2  44 W3        30.65S
MARION         MOSUNNY   21   9  58 N5        30.62S WCI  15
MT. VERNON     SUNNY     19   7  58 N5        30.62S WCI  13
CENTRALIA*     SUNNY     17   2  53 N6        30.63S WCI   8
SALEM*         SUNNY     18   2  51 N5        30.64S WCI  11
METROPOLIS*    MOSUNNY   26  11  55 NE5       30.59S WCI  20
$$

ILZ067-068-072-073-078-083-087-091-272100-
SOUTHEAST ILLINOIS

CITY           SKY/WX    TMP DP  RH WIND       PRES   REMARKS
LAWRENCEVILLE  FLURRIES  20   4  50 N8        30.64F WCI  10
FLORA*         SUNNY     16   2  54 CALM      30.65S
FAIRFIELD*     SUNNY     18   6  58 N6        30.63S WCI  10
HARRISBURG*    SUNNY     21  11  63 N7        30.64R WCI  13
ROBINSON*      SUNNY     18   3  52 NW6       30.64F WCI  10
CARMI*         SUNNY     23  13  65 N8        30.62S WCI  14
$$

ABBREVIATIONS USED IN REMARKS
   TC - TEMPERATURE IN CELSIUS
  WCI - WIND CHILL INDEX
   HX - HEAT INDEX
  VSB - VISIBILITY
$$




USA.gov is the U.S. government's official web portal to all federal, state and local government web resources and services.